Weather History for KCQM - March, 2012

Change the Weather History Date:

Friday, March 2, 2012

  Actual Average Record
Temperature  
Mean Temperature 30 °F -  
Max Temperature 33 °F 25 °F 44 °F (2001)
Min Temperature 28 °F 5 °F -29 °F (2014)
Degree Days  
Heating Degree Days 34    
Moisture  
Dew Point 27 °F    
Average Humidity 85    
Maximum Humidity 100    
Minimum Humidity 70    
Precipitation  
Precipitation 0.00 in - - ()
Sea Level Pressure  
Sea Level Pressure 29.58 in    
Wind  
Wind Speed 2 mph (SSE)    
Max Wind Speed 8 mph    
Max Gust Speed -    
Visibility 9 miles    
Events Snow    
Averages and records for this station are not official NWS values.
T = Trace of Precipitation, MM = Missing Value Source: NWS Daily Summary

Daily Weather History Graph

Daily Weather History Graph

Search for Another Location

Airport or City:

Trip Planner

Search our weather history database for the weather conditions in past years. The results will help you decide how hot, cold, wet, or windy it might be!

Date:

Astronomy

Mar. 02, 2012 Rise Set
Actual Time 6:48 AM CST 5:57 PM CST
Civil Twilight 6:17 AM CST 6:28 PM CST
Nautical Twilight 5:41 AM CST 7:04 PM CST
Astronomical Twilight 5:05 AM CST 7:40 PM CST
Moon 11:50 AM CST (3/2) 2:59 AM CST (3/2)
Length of Visible Light 12h 11m
Length of Day
11h 09m
Waxing Gibbous, 66% of the Moon is Illuminated
Mar 2
Waxing Gibbous
Mar 8
Full
Mar 14
Last Quarter
Mar 22
New
Mar 30
First Quarter

Hourly Weather History & Observations

Time (CST) Temp. Windchill Dew Point Humidity Pressure Visibility Wind Dir Wind Speed Gust Speed Precip Events Conditions
12:16 AM 28.4 °F - 24.8 °F 86% 29.69 in 10.0 mi Calm Calm - N/A   Overcast
12:36 AM 28.4 °F - 24.8 °F 86% 29.69 in 4.0 mi Calm Calm - N/A Snow Light Snow
12:57 AM 28.4 °F - 26.6 °F 93% 29.68 in 1.8 mi Calm Calm - N/A Snow Light Snow
1:16 AM 28.4 °F - 26.6 °F 93% 29.67 in 1.5 mi Calm Calm - N/A Snow Light Snow
1:36 AM 28.4 °F - 26.6 °F 93% 29.67 in 4.0 mi Calm Calm - N/A Snow Light Snow
1:57 AM 28.4 °F - 26.6 °F 93% 29.66 in 10.0 mi Calm Calm - N/A   Overcast
2:36 AM 28.4 °F - 26.6 °F 93% 29.65 in 10.0 mi Calm Calm - N/A   Overcast
2:57 AM 28.4 °F - 26.6 °F 93% 29.64 in 10.0 mi Calm Calm - N/A   Overcast
3:16 AM 28.4 °F 24.6 °F 28.4 °F 100% 29.64 in 10.0 mi SSE 3.5 mph - N/A   Overcast
3:37 AM 28.4 °F 23.3 °F 28.4 °F 100% 29.64 in 10.0 mi SSE 4.6 mph - N/A   Overcast
3:57 AM 30.2 °F 26.7 °F 28.4 °F 93% 29.63 in 10.0 mi SSE 3.5 mph - N/A   Overcast
4:16 AM 30.2 °F 26.7 °F 28.4 °F 93% 29.63 in 10.0 mi South 3.5 mph - N/A   Overcast
4:36 AM 30.2 °F 24.3 °F 28.4 °F 93% 29.63 in 10.0 mi SSE 5.8 mph - N/A   Overcast
4:56 AM 28.4 °F 23.3 °F 28.4 °F 100% 29.63 in 10.0 mi South 4.6 mph - N/A   Overcast
5:17 AM 28.4 °F 22.2 °F 28.4 °F 100% 29.62 in 5.0 mi South 5.8 mph - N/A   Overcast
5:36 AM 28.4 °F 24.6 °F 28.4 °F 100% 29.63 in 3.0 mi SSE 3.5 mph - N/A   Overcast
5:56 AM 28.4 °F 23.3 °F 28.4 °F 100% 29.63 in 5.0 mi South 4.6 mph - N/A   Overcast
6:17 AM 28.4 °F 24.6 °F 28.4 °F 100% 29.62 in 7.0 mi South 3.5 mph - N/A   Overcast
6:36 AM 28.4 °F - 28.4 °F 100% 29.62 in 7.0 mi Calm Calm - N/A   Overcast
6:56 AM 28.4 °F - 28.4 °F 100% 29.62 in 7.0 mi Calm Calm - N/A   Overcast
7:17 AM 28.4 °F - 28.4 °F 100% 29.62 in 7.0 mi Calm Calm - N/A   Overcast
7:36 AM 28.4 °F - 28.4 °F 100% 29.62 in 7.0 mi Calm Calm - N/A   Mostly Cloudy
7:56 AM 28.4 °F - 28.4 °F 100% 29.62 in 7.0 mi Calm Calm - N/A   Overcast
8:17 AM 30.2 °F - 28.4 °F 93% 29.62 in 10.0 mi Calm Calm - N/A   Overcast
8:36 AM 30.2 °F - 28.4 °F 93% 29.61 in 10.0 mi Calm Calm - N/A   Overcast
8:56 AM 30.2 °F 26.7 °F 28.4 °F 93% 29.61 in 10.0 mi SE 3.5 mph - N/A   Overcast
9:17 AM 30.2 °F 26.7 °F 26.6 °F 86% 29.61 in 10.0 mi SE 3.5 mph - N/A   Overcast
9:36 AM 32.0 °F - 26.6 °F 80% 29.60 in 10.0 mi Calm Calm - N/A   Overcast
9:56 AM 32.0 °F 27.5 °F 26.6 °F 80% 29.59 in 10.0 mi SSE 4.6 mph - N/A   Overcast
10:16 AM 32.0 °F 28.7 °F 24.8 °F 75% 29.59 in 10.0 mi SSE 3.5 mph - N/A   Overcast
10:36 AM 32.0 °F 26.4 °F 24.8 °F 75% 29.59 in 10.0 mi SSE 5.8 mph - N/A   Overcast
10:56 AM 32.0 °F 26.4 °F 24.8 °F 75% 29.59 in 10.0 mi SE 5.8 mph - N/A   Overcast
11:16 AM 32.0 °F 25.6 °F 26.6 °F 80% 29.59 in 10.0 mi SSE 6.9 mph - N/A   Overcast
11:37 AM 33.8 °F 28.6 °F 26.6 °F 75% 29.59 in 10.0 mi South 5.8 mph - N/A   Overcast
11:56 AM 33.8 °F 27.0 °F 26.6 °F 75% 29.59 in 10.0 mi SSE 8.1 mph - N/A   Overcast
12:16 PM 32.0 °F 26.4 °F 24.8 °F 75% 29.57 in 10.0 mi SE 5.8 mph - N/A   Overcast
12:37 PM 33.8 °F 28.6 °F 24.8 °F 70% 29.56 in 10.0 mi SE 5.8 mph - N/A   Overcast
12:56 PM 33.8 °F 29.6 °F 24.8 °F 70% 29.55 in 10.0 mi SSE 4.6 mph - N/A   Overcast
1:16 PM 33.8 °F 29.6 °F 24.8 °F 70% 29.54 in 10.0 mi ESE 4.6 mph - N/A   Overcast
1:37 PM 33.8 °F 27.7 °F 24.8 °F 70% 29.53 in 10.0 mi SE 6.9 mph - N/A   Overcast
1:56 PM 33.8 °F 27.7 °F 24.8 °F 70% 29.53 in 10.0 mi SE 6.9 mph - N/A   Overcast
2:37 PM 33.8 °F 30.8 °F 24.8 °F 70% 29.53 in 10.0 mi SSE 3.5 mph - N/A   Overcast
2:56 PM 33.8 °F 30.8 °F 24.8 °F 70% 29.52 in 10.0 mi South 3.5 mph - N/A   Overcast
3:16 PM 33.8 °F 30.8 °F 24.8 °F 70% 29.52 in 10.0 mi SSE 3.5 mph - N/A   Overcast
3:36 PM 33.8 °F - 24.8 °F 70% 29.52 in 10.0 mi Calm Calm - N/A   Overcast
3:56 PM 33.8 °F 30.8 °F 24.8 °F 70% 29.52 in 10.0 mi SSW 3.5 mph - N/A   Overcast
4:16 PM 33.8 °F - 24.8 °F 70% 29.52 in 10.0 mi Calm Calm - N/A   Overcast
4:36 PM 33.8 °F - 24.8 °F 70% 29.51 in 10.0 mi Calm Calm - N/A   Overcast
4:57 PM 33.8 °F - 24.8 °F 70% 29.51 in 10.0 mi Calm Calm - N/A   Overcast
5:16 PM 32.0 °F - 26.6 °F 80% 29.52 in 10.0 mi Calm Calm - N/A   Overcast
5:36 PM 32.0 °F - 26.6 °F 80% 29.52 in 10.0 mi Calm Calm - N/A   Overcast
5:57 PM 32.0 °F - 26.6 °F 80% 29.51 in 10.0 mi Calm Calm - N/A   Overcast
6:16 PM 32.0 °F - 24.8 °F 75% 29.51 in 10.0 mi Calm Calm - N/A   Overcast
6:36 PM 30.2 °F - 26.6 °F 86% 29.52 in 10.0 mi Calm Calm - N/A   Overcast
6:57 PM 30.2 °F 26.7 °F 26.6 °F 86% 29.52 in 10.0 mi SW 3.5 mph - N/A Snow Light Snow
7:16 PM 30.2 °F - 26.6 °F 86% 29.52 in 10.0 mi Calm Calm - N/A   Overcast
7:36 PM 30.2 °F - 26.6 °F 86% 29.52 in 10.0 mi Calm Calm - N/A   Overcast
7:57 PM 30.2 °F - 26.6 °F 86% 29.51 in 10.0 mi Calm Calm - N/A   Overcast
8:16 PM 30.2 °F - 26.6 °F 86% 29.51 in 7.0 mi Calm Calm - N/A Snow Light Snow
8:36 PM 28.4 °F - 26.6 °F 93% 29.51 in 5.0 mi Calm Calm - N/A Snow Light Snow
8:56 PM 28.4 °F - 26.6 °F 93% 29.51 in 7.0 mi Calm Calm - N/A Snow Light Snow
9:16 PM 28.4 °F - 26.6 °F 93% 29.51 in 5.0 mi Calm Calm - N/A Snow Light Snow
9:37 PM 28.4 °F - 26.6 °F 93% 29.50 in 5.0 mi Calm Calm - N/A Snow Light Snow
9:56 PM 28.4 °F - 26.6 °F 93% 29.50 in 4.0 mi Calm Calm - N/A Snow Light Snow
10:16 PM 28.4 °F - 26.6 °F 93% 29.50 in 4.0 mi Calm Calm - N/A Snow Light Snow
10:37 PM 28.4 °F - 26.6 °F 93% 29.50 in 7.0 mi Calm Calm - N/A Snow Light Snow
10:56 PM 28.4 °F - 26.6 °F 93% 29.50 in 7.0 mi Calm Calm - N/A Snow Light Snow
11:16 PM 28.4 °F - 26.6 °F 93% 29.49 in 4.0 mi Calm Calm - N/A Snow Light Snow
11:36 PM 26.6 °F - 26.6 °F 100% 29.49 in 5.0 mi Calm Calm - N/A Snow Light Snow
11:56 PM 28.4 °F - 26.6 °F 93% 29.49 in 7.0 mi Calm Calm - N/A Snow Light Snow